Location: *
(49.3460°S, 176.6879°W)
Time: 03:39:53
(UTC+00:00)

Daily predictions for brighter satellites

Satellite Brightness Start Highest point End
(mag) Time Altitude Azimuth Time Altitude Azimuth Time Altitude Azimuth
AQUARIUS 4.2 06:18:41 10° SSE 06:23:17 79° ENE 06:27:49 10° N
Cosmos 1703 Rocket 3.6 06:21:07 10° N 06:25:35 73° E 06:30:08 10° SSE
SL-27 R/B 2.6 06:25:51 10° N 06:29:00 45° ENE 06:32:12 10° SSE
Cosmos 1953 4.2 06:27:06 10° SSE 06:29:33 15° ESE 06:31:58 10° E
ERBS 4.1 06:27:51 10° SW 06:30:07 19° S 06:32:21 10° SE
USA 234 3.8 06:24:28 10° ESE 06:31:01 64° SSW 06:37:32 10° W
Uosat 12 SS-18 rocket 4.1 06:26:11 10° NNW 06:31:06 71° NE 06:35:24 10° SE
Cosmos 1674 3.4 06:29:11 10° NNE 06:32:27 30° E 06:35:46 10° SSE
Cosmos 2034 Rocket 4.1 06:27:06 10° N 06:33:23 86° W 06:39:43 10° S
Okean O Rocket 3.2 06:30:56 10° SE 06:33:34 15° E 06:36:10 10° NE
CORIOLIS 4.3 06:29:21 10° SSE 06:34:54 89° WSW 06:40:25 10° NNW
IRIDIUM 106 4.4 06:29:38 10° S 06:34:59 89° W 06:40:16 10° N
Cosmos 1908 Rocket 4.4 06:31:58 10° SSW 06:36:27 58° W 06:40:50 10° N
CZ-4C R/B 2.9 06:33:09 10° NNE 06:36:38 77° ESE 06:40:12 10° S
Cosmos 2237 Rocket 3.1 06:31:30 10° SSW 06:36:40 33° SE 06:41:47 10° ENE
Meteor PRIRODA 4.3 06:33:40 10° S 06:37:25 64° WSW 06:41:07 10° NNW
USA 308 3.7 06:33:43 10° WSW 06:37:44 44° S 06:41:45 10° ESE
Cosmos 2360 Rocket 3.6 06:33:31 10° SW 06:38:51 41° WNW 06:44:08 10° N
Okean 1-7 3.4 06:35:35 10° NNW 06:39:56 74° W 06:44:24 10° S
Cosmos 1437 Rocket 4.1 06:37:07 10° SSW 06:41:06 46° W 06:44:59 10° N
SJ-11-01 4.3 06:38:11 10° SSE 06:42:59 89° ENE 06:47:41 10° NNW
Cosmos 1300 Rocket 3.7 06:38:51 10° S 06:43:13 55° ESE 06:47:31 10° NNE
Cosmos 1782 Rocket 3.6 06:39:31 10° S 06:44:02 87° W 06:48:27 10° N
NOAA 6 4.0 06:38:57 10° SSE 06:44:12 84° ENE 06:49:22 10° NNW
ADEOS 4.1 06:39:13 10° S 06:44:30 68° WSW 06:49:44 10° NNW
In-Cosmos 22 4.3 06:39:20 10° N 06:44:41 56° E 06:50:15 10° SSE
COSMOS 2428 2.7 06:40:53 10° SSW 06:46:41 79° ESE 06:52:25 10° NNE
Cosmos 405 Rocket 4.3 06:45:32 10° NW 06:49:09 40° WSW 06:52:45 10° S
YAOGAN 1 3.6 06:46:05 10° SE 06:49:48 26° E 06:53:29 10° NNE
Okean 2 Rocket 3.9 06:47:15 10° S 06:51:21 33° ESE 06:55:22 10° NE
Alouette 2 Rocket 3.5 06:46:50 10° N 06:51:30 61° E 06:55:10 10° SSE
SJ 16-02 1.6 06:47:59 10° SSW 06:52:29 75° WNW 06:56:55 10° NNE
Cosmos 1300 4.3 06:50:14 10° SSE 06:53:00 18° ESE 06:54:37 15° E
KORONAS-FOTON 3.8 06:50:49 10° N 06:54:33 58° E 06:58:21 10° SSE
Meteor 1-21 4.2 06:50:59 10° N 06:56:32 64° E 07:02:11 10° SSE
Cosmos 1777 Rocket 4.0 06:52:00 10° SSW 06:57:25 80° ESE 07:02:42 10° NNE
NOSS 0 Rocket 4.0 06:51:44 10° SSW 06:58:01 65° SE 07:04:03 11° NE
CZ-4C R/B 4.0 06:53:19 10° NNE 06:59:05 21° ENE 07:04:19 10° ESE
ARGOS 3.8 06:55:32 10° S 07:00:56 62° WSW 07:06:16 10° NNW
Okean 2 3.6 06:58:52 10° N 07:02:52 49° E 07:06:54 10° SSE
CZ-4B R/B 3.6 06:57:54 10° SSE 07:02:56 37° E 07:07:51 10° NNE
Cosmos 1707 2.9 07:00:57 10° NNW 07:04:51 76° WSW 07:08:50 10° S
CZ-4B R/B 4.3 07:01:50 10° S 07:05:49 45° WSW 07:09:57 10° NW
USA 305 3.4 07:01:54 10° WSW 07:05:59 50° SSE 07:08:59 17° E
PAYLOAD B 4.3 07:03:39 10° SSE 07:09:17 59° ENE 07:14:50 10° N
Cosmos 1626 2.0 07:07:34 10° N 07:11:16 83° E 07:15:01 10° SSE
PSLV R/B 4.0 07:08:39 11° NNE 07:12:43 61° ESE 07:16:57 10° S
Cosmos 2279 Rocket 4.0 07:06:54 10° N 07:13:06 65° E 07:19:22 10° SSE
Geosat 4.1 07:08:45 10° NNE 07:13:49 84° WNW 07:18:56 10° SSW
Cosmos 1271 Rocket 3.7 07:11:26 10° S 07:14:46 28° ESE 07:15:57 23° E
Meteor 1-16 Rocket 4.1 07:10:36 10° S 07:15:59 64° ESE 07:21:20 10° NNE
SL-16 R/B 3.5 07:12:01 10° SSW 07:16:48 26° SE 07:19:50 17° E
Cosmos 2142 Rocket 4.4 07:10:56 10° N 07:17:03 68° E 07:23:14 10° SSE
Kosmos-1675 4.3 07:10:07 10° SW 07:17:20 72° WNW 07:20:43 13° NNE
Cosmos 1634 Rocket 4.2 07:11:53 10° NNW 07:18:12 81° W 07:24:39 10° S
Cosmos 2151 Rocket 3.7 07:14:28 10° S 07:18:59 55° ESE 07:22:25 16° NNE
Lacrosse 5 rocket 1.2 07:16:18 10° NW 07:19:52 52° NE 07:22:29 18° ESE
APEX 3.7 07:16:13 10° SSW 07:21:07 57° SE 07:23:20 25° NE
Meteor 2-10 Rocket 3.9 07:18:38 10° S 07:23:43 45° ESE 07:26:59 21° NE
CZ-4B DEB 4.3 07:18:12 10° SSE 07:23:49 85° WSW 07:29:19 10° NNW
H-2A R/B 2.1 07:19:39 12° NNE 07:23:50 75° ESE 07:28:26 10° SSW
Cosmos 1758 3.8 07:20:31 10° SSW 07:24:32 62° W 07:28:29 10° N
Genesis I 3.4 07:21:17 10° NW 07:24:55 67° SW 07:28:36 10° SE
Cosmos 1908 3.4 07:21:52 10° SSW 07:25:48 72° W 07:29:38 10° N
Aureole 3 Rocket 3.1 07:25:25 25° NE 07:26:56 36° E 07:29:59 10° SSE
Cosmos 990 Rocket 4.3 07:22:38 10° SSW 07:27:42 48° ESE 07:30:22 25° ENE
PSLV R/B 4.0 07:24:15 10° S 07:28:22 77° WSW 07:32:22 10° NNW
CENTAUR R/B 4.4 07:23:13 10° W 07:29:30 29° SSW 07:34:53 10° SE
CZ-4B R/B 1.5 07:33:07 40° ESE 07:33:13 41° ESE 07:36:07 10° S
Sich 1 Rocket 3.7 07:29:10 10° SSW 07:33:48 82° W 07:38:11 11° N
Cosmos 1607 4.4 07:30:34 10° SW 07:36:53 61° WNW 07:42:07 15° NNE
Okean-O 4.2 07:33:29 10° SE 07:35:47 19° ESE 07:35:47 19° ESE
USA 276 1.9 07:36:08 10° WNW 07:39:09 66° NNE 07:39:22 63° NE
FALCON 9 DEB 3.7 07:36:59 10° NW 07:39:25 35° N 07:39:25 35° N
Cosmos 1674 Rocket 3.6 07:38:37 14° N 07:42:24 58° E 07:46:53 10° SSE
USA 307 3.1 07:38:24 10° WSW 07:42:31 59° SSE 07:44:03 35° E
IRAS Rocket 4.4 07:39:48 26° NE 07:42:54 57° ESE 07:48:26 10° S
ATLAS 3B R/B 3.0 07:38:46 10° N 07:45:47 47° ENE 07:52:26 10° SE
SL-14 R/B 3.2 07:45:43 13° N 07:49:23 78° E 07:53:31 10° SSE
Cosmos 1898 Rocket 3.9 07:44:25 10° SSW 07:49:30 47° ESE 07:51:09 35° ENE
Cosmos 468 Rocket 4.5 07:48:42 32° NE 07:50:11 38° ENE 07:55:08 10° SE
CZ-4 R/B 1.2 07:46:10 10° SSE 07:50:12 74° ENE 07:53:19 17° N
Cosmos 2227 Rocket 2.7 07:49:16 30° NE 07:50:57 36° ENE 07:56:08 10° SE
ATLAS 5 CENTAUR R/B 2.1 07:45:13 10° SW 07:51:07 72° NW 07:53:24 32° NNE
USA 306 2.9 07:50:53 10° WSW 07:55:04 71° SSE 07:56:02 49° E
SJ-6B 3.9 07:53:43 10° SSE 07:56:12 29° ESE 07:56:12 29° ESE
Cosmos 1980 3.8 07:54:39 10° SSW 08:00:22 73° WNW 08:03:27 28° NNE
Cosmos 540 Rocket 4.3 08:03:35 31° ESE 08:03:35 31° ESE 08:07:03 10° SE
Cosmos 2221 Rocket 3.9 07:57:44 10° NNW 08:02:20 70° W 08:06:58 10° S
Cosmos 2219 Rocket 4.5 07:58:16 10° SW 08:02:24 21° W 08:06:32 10° NNW
Cosmos 2297 Rocket 2.1 07:59:23 10° NNW 08:05:01 67° ENE 08:10:42 10° SSE
ERBS 3.1 08:02:31 10° SW 08:04:52 37° S 08:04:52 37° S
Cosmos 1953 2.8 08:02:11 10° SSW 08:06:16 61° W 08:08:02 31° NNW
Cosmos 1238 Rocket 3.6 08:00:52 10° S 08:06:45 66° ESE 08:08:13 46° NE
Okean O Rocket 1.9 08:05:57 10° S 08:10:24 68° WSW 08:14:46 10° NNW
Cosmos 1378 Rocket 3.7 08:08:26 17° NNW 08:11:43 74° W 08:16:08 10° S
USA 234 4.1 08:07:56 13° ESE 08:13:30 46° S 08:19:45 10° WSW
CSL-04 Debris 4.2 08:11:46 10° SSE 08:17:18 58° ENE 08:18:25 48° NE
USA 308 2.7 08:13:19 10° WSW 08:17:31 80° SSE 08:17:39 78° ESE
Cosmos 1655 Rocket 4.2 08:11:17 10° SSW 08:17:46 76° W 08:22:00 23° N
Cosmos 1763 Rocket 3.4 08:14:58 12° NNW 08:19:51 76° ENE 08:25:14 10° SSE
Cosmos 2237 Rocket 2.7 08:15:25 10° SW 08:21:03 55° WNW 08:23:39 30° N
Meteor 1-24 Rocket 4.2 08:21:42 43° E 08:21:42 43° E 08:27:11 10° SSE
Okean 1 Rocket 3.3 08:18:05 10° SSW 08:22:30 66° W 08:23:32 48° NNW
SL-8 R/B 4.0 08:18:23 10° NW 08:22:31 51° N 08:22:31 51° N
USA 186 3.8 08:20:16 10° SSE 08:21:31 22° SSE 08:21:31 22° SSE
YAOGAN 1 4.0 08:21:53 10° S 08:25:59 38° WSW 08:30:02 10° NW
Cosmos 1455 Rocket 3.5 08:21:47 10° S 08:25:33 48° SE 08:25:33 48° SE
Cosmos 1300 3.8 08:25:03 10° SSW 08:28:43 41° W 08:29:27 37° WNW
H-2A R/B 4.4 08:29:18 10° SSE 08:31:01 21° SE 08:31:01 21° SE
Cosmos 372 Rocket 4.0 08:29:27 10° SSW 08:34:45 63° ESE 08:34:57 62° ESE
Cosmos 220 Rocket 4.4 08:30:23 10° SSW 08:34:49 59° WNW 08:35:10 57° NW
Landsat 7 4.3 08:37:22 10° SSE 08:41:02 49° SE 08:41:02 49° SE
Cosmos 2219 3.1 08:42:08 71° ENE 08:42:14 71° ENE 08:47:57 10° SSE
USA 81 4.1 08:43:32 55° NNW 08:44:43 79° W 08:50:08 10° S
USA 305 3.6 08:41:21 10° WSW 08:44:31 47° W 08:44:31 47° W
CZ-4C R/B 2.8 08:38:41 10° NNW 08:47:02 74° NE 08:54:00 10° SE
CSL-04 Rocket 3.5 08:42:38 10° SSE 08:48:06 88° ENE 08:48:40 73° N
Cosmos 1455 3.8 08:45:33 10° S 08:47:40 30° S 08:47:40 30° S
Meteor 2-5 Rocket 3.6 08:50:46 76° NE 08:51:06 80° E 08:57:02 10° SSE
Cosmos 2263 Rocket 4.4 08:55:43 12° SE 08:55:43 12° SE 08:56:10 10° SE
Resurs 01 Rocket 3.5 08:48:21 10° SSE 08:50:00 21° SE 08:50:00 21° SE
IGS 5A 4.2 08:52:23 10° S 08:56:09 53° SW 08:56:09 53° SW
Cosmos 1244 Rocket 4.3 08:51:09 10° S 08:57:26 87° ESE 08:58:09 72° NNE
Lacrosse 5 rocket 2.8 08:55:27 10° W 08:58:02 32° SW 08:58:02 32° SW
SL-16 R/B 2.2 08:55:45 10° SSW 09:01:32 76° WNW 09:01:43 75° NW
CZ-4B R/B 4.4 09:05:13 11° W 09:05:13 11° W 09:05:48 10° WSW
Cosmos 1937 Rocket 3.8 08:59:48 10° SSW 09:04:59 62° WNW 09:04:59 62° WNW
Cosmos 44 3.8 09:07:51 10° SW 09:12:22 61° SSW 09:12:22 61° SSW
Okean-O 3.5 09:09:20 10° S 09:13:21 48° SW 09:13:21 48° SW
CENTAUR R/B 4.4 09:17:04 10° SW 09:22:07 22° S 09:25:32 14° SE
Cosmos 1745 Rocket 4.1 09:16:29 10° S 09:22:19 68° SE 09:22:19 68° SE
CZ-4 R/B 4.4 09:22:32 10° SSW 09:24:37 14° WSW 09:26:42 10° W
S3M 4.5 09:34:31 50° SE 09:34:31 50° SE 09:39:11 10° SSE
ATLAS 5 CENTAUR R/B 4.4 09:32:26 10° W 09:34:21 12° WNW 09:34:52 12° WNW
Cosmos 1943 3.8 09:29:08 10° SSW 09:33:43 52° S 09:33:43 52° S
Cosmos 2227 Rocket 3.1 09:30:39 16° WNW 09:34:54 45° SW 09:40:26 10° SSE
ATLAS 3B R/B 3.4 09:29:19 10° WNW 09:36:30 55° SW 09:43:17 10° SE
BREEZE-M DEB (TANK) 4.0 09:24:51 10° W 09:36:46 60° NW 09:36:46 60° NW
Cosmos 1603 4.4 09:35:54 10° SSW 09:40:31 51° S 09:40:31 51° S
Cosmos 2297 Rocket 4.1 09:44:43 10° WNW 09:49:34 28° SW 09:54:27 10° SSE
USA 234 3.6 09:55:15 55° SE 09:55:55 58° SSE 10:02:24 10° WSW
Cosmos 1709 Rocket 4.4 09:52:43 10° S 09:58:02 62° S 09:58:02 62° S
NOSS 3-1 (C) 4.2 10:07:30 10° NW 10:16:27 71° SW 10:24:03 10° SE
Resurs 01 Rocket 4.0 10:25:21 10° S 10:27:33 20° SW 10:27:33 20° SW
Cosmos 2263 Rocket 3.6 10:37:21 33° S 10:37:21 33° S 10:40:37 10° SSE
CZ-4C R/B 3.8 10:28:44 10° WNW 10:36:08 42° SSW 10:42:19 10° SE
Terra 4.1 10:38:22 10° SSE 10:39:58 21° SSE 10:39:58 21° SSE
USA 229 DEB 4.4 10:58:24 50° SE 10:58:24 50° SE 11:03:30 10° SE
USA 229 4.5 10:58:32 50° SE 10:58:32 50° SE 11:03:37 10° SE
CENTAUR R/B 3.7 11:08:41 10° SW 11:12:41 33° S 11:12:41 33° S
CZ-2D R/B 4.0 11:26:36 25° SSE 11:26:36 25° SSE 11:29:18 10° S
Resurs 1-4 Rocket 4.0 11:26:46 26° SSE 11:26:46 26° SSE 11:29:38 10° S
Cosmos 1833 Rocket 4.3 11:26:55 10° SSW 11:30:17 30° S 11:30:17 30° S
Cosmos 2082 Rocket 4.0 11:44:41 10° SSW 11:49:09 27° SE 11:49:09 27° SE
